TimeCST,TemperatureF,Dew PointF,Humidity,Sea Level PressureIn,VisibilityMPH,Wind Direction,Wind SpeedMPH,Gust SpeedMPH,PrecipitationIn,Events,Conditions,WindDirDegrees,DateUTC
12:54 AM,42.1,37.0,82,30.06,7.0,Calm,Calm,-,N/A,,Overcast,0,2012-11-20 06:54:00
1:54 AM,39.0,35.1,86,30.06,6.0,Calm,Calm,-,N/A,,Overcast,0,2012-11-20 07:54:00
2:54 AM,39.9,36.0,86,30.06,6.0,Calm,Calm,-,N/A,,Overcast,0,2012-11-20 08:54:00
3:54 AM,37.9,35.1,89,30.06,6.0,Calm,Calm,-,N/A,,Overcast,0,2012-11-20 09:54:00
4:54 AM,39.0,36.0,89,30.07,6.0,Calm,Calm,-,N/A,,Overcast,0,2012-11-20 10:54:00
6:54 AM,39.0,37.0,93,30.10,5.0,Calm,Calm,-,N/A,,Overcast,0,2012-11-20 12:54:00
7:31 AM,39.2,37.4,93,30.06,2.5,Calm,Calm,-,N/A,,Overcast,0,2012-11-20 13:31:00
7:42 AM,39.2,37.4,93,30.06,3.0,Calm,Calm,-,N/A,,Overcast,0,2012-11-20 13:42:00
7:54 AM,39.9,37.9,93,30.09,3.0,Calm,Calm,-,N/A,,Overcast,0,2012-11-20 13:54:00
8:04 AM,39.2,37.4,93,30.06,2.5,Calm,Calm,-,N/A,,Overcast,0,2012-11-20 14:04:00
8:40 AM,41.0,37.4,87,30.07,4.0,Calm,Calm,-,N/A,,Partly Cloudy,0,2012-11-20 14:40:00
8:54 AM,44.1,39.0,82,30.10,5.0,NW,4.6,-,N/A,,Haze,320,2012-11-20 14:54:00
9:54 AM,48.0,39.0,71,30.11,9.0,NNW,8.1,-,N/A,,Clear,330,2012-11-20 15:54:00
10:54 AM,52.0,39.0,61,30.11,10.0,NW,3.5,-,N/A,,Clear,310,2012-11-20 16:54:00
11:54 AM,55.0,39.0,55,30.09,10.0,NNE,5.8,-,N/A,,Clear,20,2012-11-20 17:54:00
12:54 PM,55.0,39.0,55,30.08,10.0,North,4.6,-,N/A,,Clear,10,2012-11-20 18:54:00
1:54 PM,55.9,39.0,53,30.09,10.0,North,5.8,-,N/A,,Partly Cloudy,350,2012-11-20 19:54:00
2:54 PM,55.9,37.9,51,30.09,10.0,North,4.6,-,N/A,,Clear,360,2012-11-20 20:54:00
3:54 PM,50.0,37.9,63,30.09,10.0,NE,3.5,-,N/A,,Clear,50,2012-11-20 21:54:00
4:54 PM,39.9,34.0,79,30.12,10.0,Calm,Calm,-,N/A,,Clear,0,2012-11-20 22:54:00
5:54 PM,41.0,35.1,79,30.14,10.0,NNW,3.5,-,N/A,,Clear,340,2012-11-20 23:54:00
6:54 PM,37.9,35.1,89,30.16,10.0,Calm,Calm,-,N/A,,Clear,0,2012-11-21 00:54:00
7:54 PM,36.0,35.1,97,30.14,7.0,Calm,Calm,-,N/A,,Clear,0,2012-11-21 01:54:00
8:54 PM,33.1,32.0,96,30.13,2.5,Calm,Calm,-,N/A,,Clear,0,2012-11-21 02:54:00
9:02 PM,33.8,30.2,87,30.09,5.0,Calm,Calm,-,N/A,,Partly Cloudy,0,2012-11-21 03:02:00
9:19 PM,30.2,28.4,93,30.10,3.0,Calm,Calm,-,N/A,,Mostly Cloudy,0,2012-11-21 03:19:00
9:27 PM,33.8,32.0,93,30.10,2.0,Calm,Calm,-,N/A,,Overcast,0,2012-11-21 03:27:00
9:35 PM,33.8,33.8,100,30.10,5.0,Calm,Calm,-,N/A,,Overcast,0,2012-11-21 03:35:00
9:54 PM,37.0,36.0,96,30.15,3.0,Calm,Calm,-,N/A,,Overcast,0,2012-11-21 03:54:00
10:03 PM,37.4,37.4,100,30.11,2.0,Calm,Calm,-,N/A,,Overcast,0,2012-11-21 04:03:00
10:10 PM,37.4,37.4,100,30.12,1.8,Calm,Calm,-,N/A,,Overcast,0,2012-11-21 04:10:00
10:17 PM,37.4,37.4,100,30.12,2.0,Calm,Calm,-,N/A,,Overcast,0,2012-11-21 04:17:00
10:23 PM,37.4,37.4,100,30.12,0.8,Calm,Calm,-,N/A,,Overcast,0,2012-11-21 04:23:00
10:34 PM,39.2,37.4,93,30.12,0.2,Calm,Calm,-,N/A,Fog,Fog,0,2012-11-21 04:34:00
10:41 PM,39.2,37.4,93,30.12,0.2,ESE,3.5,-,N/A,Fog,Fog,120,2012-11-21 04:41:00
10:54 PM,37.9,37.9,100,30.14,0.2,ESE,3.5,-,N/A,Fog,Fog,120,2012-11-21 04:54:00
11:54 PM,37.9,37.9,100,30.14,0.2,Calm,Calm,-,N/A,Fog,Fog,0,2012-11-21 05:54:00